WLF9634 NZCH-NZWN

Flight info

Callsign WLF9634
Flight time 0h 35m
Altitude 25000
Route GRETA Y393 WARDS
Aircraft B38M/M-SDE1FGHILORVWXY/HB1

Departure

Time 2026-04-29 20:58
Airport Christchurch International Airport (NZCH)

Arrival

Time 2026-04-29 21:33
Airport Wellington International Airport (NZWN)
Time Latitude Longitude Altitude Speed Heading
2026-04-29 20:24 -43.48865 172.53780 111 ft 0 kts 130°
2026-04-29 20:48 -43.48857 172.53768 111 ft 4 kts 128°
2026-04-29 20:48 -43.48841 172.53738 111 ft 4 kts 122°
2026-04-29 20:48 -43.48828 172.53705 111 ft 4 kts 114°
2026-04-29 20:49 -43.48820 172.53670 111 ft 4 kts 96°
2026-04-29 20:49 -43.48823 172.53638 111 ft 4 kts 50°
2026-04-29 20:49 -43.48827 172.53633 110 ft 0 kts 39°
2026-04-29 20:53 -43.48792 172.53670 109 ft 12 kts 38°
2026-04-29 20:53 -43.48720 172.53750 110 ft 14 kts 40°
2026-04-29 20:54 -43.48558 172.53937 110 ft 15 kts 41°
2026-04-29 20:54 -43.48476 172.54040 109 ft 17 kts 42°
2026-04-29 20:54 -43.48380 172.54152 109 ft 19 kts 40°
2026-04-29 20:55 -43.48286 172.54260 110 ft 17 kts 38°
2026-04-29 20:55 -43.48192 172.54369 112 ft 17 kts 40°
2026-04-29 20:55 -43.48096 172.54481 112 ft 19 kts 41°
2026-04-29 20:55 -43.47999 172.54594 109 ft 18 kts 41°
2026-04-29 20:56 -43.47901 172.54710 104 ft 20 kts 39°
2026-04-29 20:56 -43.47798 172.54828 103 ft 18 kts 40°
2026-04-29 20:56 -43.47721 172.54911 102 ft 12 kts 26°
2026-04-29 20:56 -43.47629 172.54903 100 ft 14 kts 344°
2026-04-29 20:57 -43.47545 172.54856 100 ft 12 kts 317°
2026-04-29 20:57 -43.47560 172.54757 100 ft 12 kts 224°
2026-04-29 20:57 -43.47620 172.54689 102 ft 27 kts 220°
2026-04-29 20:57 -43.48175 172.54046 111 ft 128 kts 220°
2026-04-29 20:58 -43.48701 172.53436 114 ft 169 kts 220°
2026-04-29 20:58 -43.49731 172.52243 312 ft 211 kts 220°
2026-04-29 20:58 -43.51020 172.50434 1965 ft 196 kts 237°
2026-04-29 20:58 -43.51523 172.49318 2474 ft 209 kts 238°
2026-04-29 20:59 -43.52293 172.47624 3538 ft 208 kts 235°
2026-04-29 20:59 -43.53065 172.45945 4608 ft 206 kts 234°
2026-04-29 20:59 -43.53837 172.44277 5643 ft 206 kts 235°
2026-04-29 20:59 -43.54447 172.42492 6655 ft 209 kts 253°
2026-04-29 21:00 -43.54453 172.40476 7585 ft 217 kts 281°
2026-04-29 21:00 -43.53696 172.38660 8413 ft 231 kts 312°
2026-04-29 21:00 -43.52262 172.37511 9095 ft 252 kts 339°
2026-04-29 21:00 -43.50436 172.37303 9613 ft 278 kts
2026-04-29 21:01 -43.48567 172.38268 10121 ft 300 kts 35°
2026-04-29 21:01 -43.47118 172.40415 10626 ft 315 kts 64°
2026-04-29 21:01 -43.46347 172.43299 11125 ft 329 kts 78°
2026-04-29 21:01 -43.45814 172.46438 11594 ft 345 kts 81°
2026-04-29 21:02 -43.45063 172.49653 12236 ft 357 kts 75°
2026-04-29 21:02 -43.44254 172.52902 13061 ft 361 kts 76°
2026-04-29 21:02 -43.43465 172.56199 13802 ft 366 kts 76°
2026-04-29 21:02 -43.42515 172.59473 14524 ft 375 kts 62°
2026-04-29 21:03 -43.40843 172.62209 15273 ft 383 kts 41°
2026-04-29 21:03 -43.38683 172.64423 15918 ft 389 kts 37°
2026-04-29 21:03 -43.36491 172.66630 16619 ft 393 kts 37°
2026-04-29 21:03 -43.34272 172.68856 17280 ft 397 kts 36°
2026-04-29 21:04 -43.32024 172.71105 17930 ft 401 kts 36°
2026-04-29 21:04 -43.29757 172.73369 18538 ft 405 kts 36°
2026-04-29 21:04 -43.27468 172.75654 19150 ft 408 kts 36°
2026-04-29 21:04 -43.25164 172.77950 19736 ft 411 kts 36°
2026-04-29 21:05 -43.22839 172.80266 20319 ft 415 kts 36°
2026-04-29 21:05 -43.20496 172.82598 20879 ft 418 kts 35°
2026-04-29 21:05 -43.18138 172.84942 21427 ft 421 kts 35°
2026-04-29 21:05 -43.15753 172.87309 21993 ft 424 kts 35°
2026-04-29 21:06 -43.13360 172.89684 22508 ft 427 kts 35°
2026-04-29 21:06 -43.10947 172.92075 23023 ft 430 kts 35°
2026-04-29 21:06 -43.08549 172.94449 23509 ft 432 kts 34°
2026-04-29 21:06 -43.06098 172.96874 23996 ft 435 kts 34°
2026-04-29 21:07 -43.03639 172.99304 24472 ft 438 kts 34°
2026-04-29 21:07 -43.01162 173.01749 24921 ft 441 kts 34°
2026-04-29 21:07 -42.98669 173.04208 25348 ft 443 kts 34°
2026-04-29 21:07 -42.96164 173.06705 25606 ft 450 kts 34°
2026-04-29 21:08 -42.93623 173.09268 25620 ft 457 kts 34°
2026-04-29 21:08 -42.91060 173.11843 25634 ft 458 kts 34°
2026-04-29 21:08 -42.88491 173.14420 25647 ft 458 kts 34°
2026-04-29 21:08 -42.85921 173.16994 25643 ft 457 kts 34°
2026-04-29 21:09 -42.83360 173.19558 25630 ft 457 kts 34°
2026-04-29 21:09 -42.80788 173.22127 25638 ft 457 kts 34°
2026-04-29 21:09 -42.78229 173.24687 25653 ft 457 kts 34°
2026-04-29 21:09 -42.75656 173.27252 25646 ft 457 kts 34°
2026-04-29 21:10 -42.73122 173.29776 25634 ft 457 kts 34°
2026-04-29 21:10 -42.70555 173.32331 25635 ft 457 kts 34°
2026-04-29 21:10 -42.67986 173.34890 25637 ft 457 kts 34°
2026-04-29 21:10 -42.65412 173.37449 25625 ft 457 kts 34°
2026-04-29 21:11 -42.62843 173.40001 25633 ft 457 kts 34°
2026-04-29 21:11 -42.60304 173.42520 25631 ft 457 kts 34°
2026-04-29 21:11 -42.57729 173.45073 25633 ft 457 kts 34°
2026-04-29 21:11 -42.55162 173.47614 25625 ft 456 kts 34°
2026-04-29 21:12 -42.52595 173.50155 25634 ft 456 kts 34°
2026-04-29 21:12 -42.50029 173.52691 25637 ft 457 kts 34°
2026-04-29 21:12 -42.47458 173.55229 25634 ft 457 kts 34°
2026-04-29 21:12 -42.44896 173.57755 25628 ft 456 kts 34°
2026-04-29 21:13 -42.42331 173.60282 25630 ft 456 kts 34°
2026-04-29 21:13 -42.39758 173.62814 25635 ft 457 kts 34°
2026-04-29 21:13 -42.37190 173.65340 25632 ft 455 kts 34°
2026-04-29 21:13 -42.34626 173.67858 25598 ft 450 kts 36°
2026-04-29 21:14 -42.32128 173.70308 25372 ft 439 kts 36°
2026-04-29 21:14 -42.29697 173.72691 24932 ft 436 kts 36°
2026-04-29 21:14 -42.27249 173.75088 24478 ft 433 kts 36°
2026-04-29 21:14 -42.24819 173.77467 24016 ft 430 kts 36°
2026-04-29 21:15 -42.22394 173.79836 23491 ft 430 kts 36°
2026-04-29 21:15 -42.19977 173.82196 23088 ft 426 kts 36°
2026-04-29 21:15 -42.17582 173.84533 22666 ft 423 kts 36°
2026-04-29 21:15 -42.15208 173.86847 22212 ft 419 kts 36°
2026-04-29 21:16 -42.12849 173.89142 21803 ft 417 kts 36°
2026-04-29 21:16 -42.10501 173.91427 21370 ft 414 kts 36°
2026-04-29 21:16 -42.08175 173.93686 20948 ft 412 kts 36°
2026-04-29 21:16 -42.05854 173.95940 20531 ft 409 kts 36°
2026-04-29 21:17 -42.03581 173.98145 20116 ft 407 kts 36°
2026-04-29 21:17 -42.01291 174.00365 19708 ft 404 kts 37°
2026-04-29 21:17 -41.99013 174.02570 19295 ft 402 kts 37°
2026-04-29 21:17 -41.96749 174.04761 18884 ft 400 kts 37°
2026-04-29 21:18 -41.94493 174.06941 18475 ft 399 kts 37°
2026-04-29 21:18 -41.92246 174.09112 18052 ft 397 kts 37°
2026-04-29 21:18 -41.90003 174.11276 17636 ft 395 kts 37°
2026-04-29 21:18 -41.87774 174.13425 17232 ft 393 kts 37°
2026-04-29 21:19 -41.85555 174.15562 16834 ft 391 kts 37°
2026-04-29 21:19 -41.83344 174.17689 16371 ft 391 kts 37°
2026-04-29 21:19 -41.81138 174.19810 15974 ft 389 kts 37°
2026-04-29 21:19 -41.78938 174.21922 15582 ft 386 kts 37°
2026-04-29 21:20 -41.76777 174.23997 15182 ft 384 kts 37°
2026-04-29 21:20 -41.74591 174.26093 14495 ft 388 kts 37°
2026-04-29 21:20 -41.72311 174.28013 13702 ft 386 kts 26°
2026-04-29 21:20 -41.69916 174.29540 13230 ft 374 kts 28°
2026-04-29 21:21 -41.67638 174.31060 12932 ft 358 kts 28°
2026-04-29 21:21 -41.65455 174.32538 12591 ft 345 kts 29°
2026-04-29 21:21 -41.63350 174.33978 12239 ft 343 kts 29°
2026-04-29 21:21 -41.61236 174.35432 11864 ft 341 kts 29°
2026-04-29 21:22 -41.59126 174.36886 11491 ft 340 kts 29°
2026-04-29 21:22 -41.57024 174.38332 11182 ft 336 kts 29°
2026-04-29 21:22 -41.54990 174.39732 11087 ft 319 kts 29°
2026-04-29 21:22 -41.53067 174.41039 10973 ft 303 kts 29°
2026-04-29 21:23 -41.51212 174.42295 10650 ft 296 kts 28°
2026-04-29 21:23 -41.49394 174.43524 10380 ft 297 kts 28°
2026-04-29 21:23 -41.47530 174.44786 10059 ft 298 kts 28°
2026-04-29 21:23 -41.45669 174.46041 9704 ft 301 kts 28°
2026-04-29 21:24 -41.43821 174.47285 9345 ft 302 kts 28°
2026-04-29 21:24 -41.41953 174.48547 9043 ft 299 kts 28°
2026-04-29 21:24 -41.40095 174.49798 8737 ft 299 kts 28°
2026-04-29 21:24 -41.38238 174.51049 8386 ft 299 kts 27°
2026-04-29 21:25 -41.36400 174.52283 8115 ft 295 kts 28°
2026-04-29 21:25 -41.34577 174.53510 7814 ft 293 kts 28°
2026-04-29 21:25 -41.32743 174.54739 7495 ft 294 kts 28°
2026-04-29 21:25 -41.30918 174.55966 7140 ft 294 kts 28°
2026-04-29 21:26 -41.29097 174.57194 6895 ft 291 kts 28°
2026-04-29 21:26 -41.27299 174.58401 6611 ft 286 kts 29°
2026-04-29 21:26 -41.25515 174.59596 6292 ft 286 kts 28°
2026-04-29 21:26 -41.23750 174.60802 5987 ft 284 kts 33°
2026-04-29 21:27 -41.22746 174.61882 5725 ft 279 kts 51°
2026-04-29 21:27 -41.21140 174.64441 5352 ft 258 kts 54°
2026-04-29 21:27 -41.20014 174.66225 4997 ft 246 kts 54°
2026-04-29 21:27 -41.18948 174.67910 4647 ft 237 kts 54°
2026-04-29 21:28 -41.17923 174.69558 4321 ft 225 kts 58°
2026-04-29 21:28 -41.17118 174.71277 3997 ft 213 kts 70°
2026-04-29 21:28 -41.16673 174.73084 3687 ft 199 kts 86°
2026-04-29 21:28 -41.16613 174.74851 3421 ft 184 kts 100°
2026-04-29 21:29 -41.16830 174.76441 3212 ft 170 kts 111°
2026-04-29 21:29 -41.17266 174.77868 3057 ft 164 kts 123°
2026-04-29 21:29 -41.17899 174.79096 3002 ft 160 kts 135°
2026-04-29 21:29 -41.18704 174.80085 2963 ft 160 kts 146°
2026-04-29 21:30 -41.19657 174.80815 3013 ft 159 kts 158°
2026-04-29 21:30 -41.20709 174.81310 2711 ft 162 kts 166°
2026-04-29 21:30 -41.21812 174.81550 2215 ft 161 kts 174°
2026-04-29 21:30 -41.22889 174.81624 1904 ft 146 kts 176°
2026-04-29 21:31 -41.23847 174.81598 1746 ft 135 kts 180°
2026-04-29 21:31 -41.24806 174.81524 1142 ft 140 kts 181°
2026-04-29 21:31 -41.25744 174.81407 891 ft 133 kts 185°
2026-04-29 21:31 -41.26673 174.81219 675 ft 136 kts 187°
2026-04-29 21:32 -41.27615 174.81019 659 ft 138 kts 185°
2026-04-29 21:32 -41.28570 174.80888 670 ft 138 kts 181°
2026-04-29 21:32 -41.29528 174.80862 624 ft 138 kts 179°
2026-04-29 21:32 -41.30481 174.80822 399 ft 139 kts 181°
2026-04-29 21:33 -41.31441 174.80758 160 ft 137 kts 180°
2026-04-29 21:33 -41.32428 174.80703 38 ft 142 kts 181°
2026-04-29 21:33 -41.33233 174.80657 29 ft 77 kts 179°
2026-04-29 21:33 -41.33536 174.80697 29 ft 48 kts 128°